| time (UTC) | temp F | wind direction | speed knots | gust knots | rain 1hr in | rain 24hr in | rain mn in | humidity % | barometer mb |
| 20260506104145 | 49 | 318 | 3.5 | 9.6 | 0.00 | 0.01 | 0.00 | 50 | 1023.4 |
| 20260506103159 | 49 | 310 | 4.3 | 13.0 | 0.00 | 0.01 | 0.00 | 47 | 1023.6 |
| 20260506102236 | 49 | 296 | 4.3 | 11.3 | 0.00 | 0.01 | 0.00 | 50 | 1023.6 |
| 20260506101126 | 48 | 295 | 1.7 | 6.1 | 0.00 | 0.01 | 0.00 | 51 | 1023.5 |
| 20260506100141 | 49 | 280 | 2.6 | 9.6 | 0.00 | 0.01 | 0.00 | 51 | 1023.4 |
| 20260506095156 | 49 | 309 | 4.3 | 8.7 | 0.00 | 0.01 | 0.00 | 50 | 1023.4 |
| 20260506094213 | 49 | 327 | 2.6 | 9.6 | 0.00 | 0.01 | 0.00 | 50 | 1023.5 |
| 20260506093228 | 49 | 314 | 3.5 | 11.3 | 0.00 | 0.01 | 0.00 | 50 | 1023.4 |
| 20260506092139 | 50 | 250 | 3.5 | 6.1 | 0.00 | 0.01 | 0.00 | 49 | 1023.2 |
| 20260506091151 | 50 | 315 | 2.6 | 9.6 | 0.00 | 0.01 | 0.00 | 48 | 1023.3 |
| 20260506090228 | 50 | 336 | 3.5 | 12.2 | 0.00 | 0.01 | 0.00 | 48 | 1023.2 |
| 20260506085224 | 50 | 314 | 2.6 | 12.2 | 0.00 | 0.01 | 0.00 | 47 | 1023.2 |
| 20260506084134 | 50 | 27 | 1.7 | 7.8 | 0.00 | 0.01 | 0.00 | 48 | 1023.1 |
| 20260506083148 | 51 | 259 | 3.5 | 8.7 | 0.00 | 0.01 | 0.00 | 46 | 1023.2 |
| 20260506082203 | 50 | 167 | 2.6 | 7.0 | 0.00 | 0.01 | 0.00 | 46 | 1023.1 |
| 20260506081238 | 51 | 238 | 3.5 | 8.7 | 0.00 | 0.01 | 0.00 | 45 | 1023.1 |
| 20260506080234 | 51 | 296 | 3.5 | 7.8 | 0.00 | 0.01 | 0.00 | 43 | 1023.2 |
| 20260506073212 | 52 | 240 | 1.7 | 7.0 | 0.00 | 0.01 | 0.00 | 40 | 1023.2 |
| 20260506072227 | 52 | 298 | 2.6 | 9.6 | 0.00 | 0.01 | 0.00 | 39 | 1023.1 |
| 20260506071140 | 53 | 280 | 5.2 | 9.6 | 0.00 | 0.01 | 0.00 | 38 | 1023.2 |
| 20260506070154 | 53 | 266 | 4.3 | 11.3 | 0.00 | 0.01 | 0.00 | 37 | 1023.3 |
| 20260506062151 | 54 | 276 | 3.5 | 13.9 | 0.00 | 0.01 | 0.00 | 35 | 1022.8 |
| 20260506061206 | 54 | 291 | 3.5 | 7.8 | 0.00 | 0.01 | 0.00 | 34 | 1022.9 |
| 20260506060222 | 55 | 355 | 2.6 | 7.8 | 0.00 | 0.01 | 0.00 | 33 | 1022.8 |
| 20260506051253 | 56 | 345 | 4.3 | 13.0 | 0.00 | 0.01 | 0.01 | 32 | 1022.5 |
| 20260506050247 | 56 | 237 | 3.5 | 12.2 | 0.00 | 0.01 | 0.01 | 32 | 1022.5 |
| 20260506044213 | 56 | 67 | 0.9 | 6.1 | 0.00 | 0.01 | 0.01 | 35 | 1022.4 |
| 20260506043228 | 56 | 2 | 2.6 | 12.2 | 0.00 | 0.01 | 0.01 | 34 | 1022.4 |
| 20260506042139 | 55 | 260 | 2.6 | 6.1 | 0.00 | 0.01 | 0.01 | 35 | 1022.3 |
| 20260506041156 | 55 | 289 | 1.7 | 6.1 | 0.00 | 0.01 | 0.01 | 40 | 1022.0 |
| 20260506040210 | 55 | 1 | 1.7 | 5.2 | 0.00 | 0.01 | 0.01 | 40 | 1022.2 |
| 20260506035246 | 56 | 277 | 1.7 | 8.7 | 0.00 | 0.01 | 0.01 | 41 | 1021.9 |
| 20260506034240 | 56 | 253 | 2.6 | 7.0 | 0.00 | 0.01 | 0.01 | 41 | 1022.1 |
| 20260506033150 | 56 | 45 | 0.9 | 5.2 | 0.00 | 0.01 | 0.01 | 42 | 1021.9 |
| 20260506032205 | 56 | 349 | 0.9 | 4.3 | 0.00 | 0.01 | 0.01 | 43 | 1021.7 |
| 20260506031222 | 55 | 326 | 1.7 | 4.3 | 0.00 | 0.01 | 0.01 | 43 | 1021.7 |
| 20260506030236 | 56 | 317 | 3.5 | 8.7 | 0.00 | 0.01 | 0.01 | 42 | 1021.6 |
| 20260506025147 | 56 | 105 | 0.0 | 6.1 | 0.00 | 0.01 | 0.01 | 42 | 1021.6 |
| 20260506024204 | 56 | 326 | 3.5 | 7.8 | 0.00 | 0.01 | 0.01 | 42 | 1021.5 |
| 20260506023218 | 56 | 352 | 1.7 | 5.2 | 0.00 | 0.01 | 0.01 | 42 | 1021.4 |
| 20260506022255 | 56 | 313 | 2.6 | 9.6 | 0.00 | 0.01 | 0.01 | 43 | 1021.4 |
| 20260506021206 | 55 | 6 | 0.9 | 4.3 | 0.00 | 0.01 | 0.01 | 43 | 1021.3 |
| 20260506020201 | 56 | 331 | 1.7 | 8.7 | 0.00 | 0.01 | 0.01 | 42 | 1021.3 |
| 20260506015215 | 57 | 301 | 2.6 | 6.1 | 0.00 | 0.01 | 0.01 | 42 | 1021.1 |
| 20260506014230 | 57 | 346 | 1.7 | 5.2 | 0.00 | 0.01 | 0.01 | 42 | 1021.0 |
| 20260506013245 | 57 | 301 | 4.3 | 9.6 | 0.00 | 0.01 | 0.01 | 41 | 1021.0 |
| 20260506012157 | 57 | 310 | 2.6 | 4.3 | 0.00 | 0.01 | 0.01 | 41 | 1021.0 |
| 20260506011212 | 58 | 250 | 3.5 | 9.6 | 0.00 | 0.01 | 0.01 | 41 | 1021.1 |
| 20260506010228 | 58 | 307 | 5.2 | 13.0 | 0.00 | 0.01 | 0.01 | 39 | 1021.0 |
| 20260506005243 | 58 | 256 | 5.2 | 15.6 | 0.00 | 0.01 | 0.01 | 38 | 1021.1 |
| 20260506004155 | 58 | 218 | 3.5 | 13.0 | 0.00 | 0.01 | 0.01 | 39 | 1020.9 |
| 20260506003210 | 58 | 293 | 1.7 | 6.1 | 0.00 | 0.01 | 0.01 | 38 | 1020.7 |
| 20260506002245 | 58 | 8 | 6.1 | 11.3 | 0.00 | 0.01 | 0.01 | 40 | 1020.9 |
| 20260506001241 | 58 | 190 | 4.3 | 14.8 | 0.00 | 0.01 | 0.01 | 44 | 1020.8 |
| 20260506000152 | 58 | 318 | 3.5 | 7.8 | 0.00 | 0.01 | 0.01 | 44 | 1020.8 |
| 20260505235228 | 58 | 183 | 7.0 | 20.9 | 0.00 | 0.01 | 0.01 | 44 | 1020.9 |
| 20260505234223 | 57 | 235 | 4.3 | 13.0 | 0.00 | 0.01 | 0.01 | 47 | 1021.0 |
| 20260505233258 | 57 | 248 | 4.3 | 13.9 | 0.00 | 0.01 | 0.01 | 47 | 1020.9 |
| 20260505232252 | 58 | 213 | 3.5 | 9.6 | 0.00 | 0.01 | 0.01 | 46 | 1020.9 |
| 20260505231203 | 57 | 219 | 4.3 | 9.6 | 0.00 | 0.01 | 0.01 | 47 | 1021.0 |
| 20260505230218 | 58 | 250 | 4.3 | 8.7 | 0.00 | 0.01 | 0.01 | 47 | 1021.0 |
| 20260505225233 | 57 | 188 | 3.5 | 9.6 | 0.00 | 0.01 | 0.01 | 48 | 1021.3 |
| 20260505224248 | 57 | 226 | 4.3 | 12.2 | 0.00 | 0.01 | 0.01 | 48 | 1021.3 |
| 20260505223200 | 57 | 87 | 4.3 | 11.3 | 0.00 | 0.01 | 0.01 | 50 | 1021.4 |
| 20260505222235 | 57 | 281 | 6.1 | 13.9 | 0.00 | 0.01 | 0.01 | 50 | 1021.5 |
| 20260505221230 | 56 | 303 | 4.3 | 11.3 | 0.00 | 0.01 | 0.01 | 50 | 1021.6 |
| 20260505220246 | 57 | 297 | 4.3 | 13.9 | 0.00 | 0.01 | 0.01 | 50 | 1021.7 |
| 20260505215157 | 56 | 190 | 3.5 | 7.8 | 0.00 | 0.01 | 0.01 | 51 | 1021.9 |
| 20260505214212 | 55 | 260 | 3.5 | 8.7 | 0.00 | 0.01 | 0.01 | 52 | 1022.2 |
| 20260505213228 | 55 | 295 | 2.6 | 7.8 | 0.00 | 0.01 | 0.01 | 54 | 1022.0 |
| 20260505212243 | 54 | 153 | 1.7 | 6.1 | 0.00 | 0.01 | 0.01 | 56 | 1022.5 |
| 20260505211319 | 55 | 175 | 3.5 | 8.7 | 0.00 | 0.01 | 0.01 | 56 | 1022.5 |
| 20260505210209 | 55 | 113 | 1.7 | 14.8 | 0.00 | 0.01 | 0.01 | 57 | 1022.8 |
| 20260505205245 | 54 | 267 | 1.7 | 7.8 | 0.00 | 0.01 | 0.01 | 58 | 1023.0 |
| 20260505204239 | 54 | 255 | 4.3 | 8.7 | 0.01 | 0.01 | 0.01 | 59 | 1023.2 |
| 20260505203254 | 53 | 202 | 2.6 | 7.0 | 0.01 | 0.01 | 0.01 | 61 | 1023.4 |
| 20260505202206 | 53 | 193 | 1.7 | 7.8 | 0.01 | 0.01 | 0.01 | 61 | 1023.6 |
| 20260505201221 | 53 | 254 | 3.5 | 7.0 | 0.01 | 0.01 | 0.01 | 61 | 1023.4 |
| 20260505200236 | 52 | 285 | 7.0 | 13.0 | 0.01 | 0.01 | 0.01 | 62 | 1023.2 |
| 20260505195252 | 52 | 301 | 5.2 | 12.2 | 0.01 | 0.01 | 0.01 | 62 | 1023.2 |
| 20260505194203 | 52 | 175 | 6.1 | 12.2 | 0.00 | 0.00 | 0.00 | 62 | 1023.2 |
| 20260505193219 | 52 | 165 | 2.6 | 8.7 | 0.00 | 0.00 | 0.00 | 62 | 1023.4 |
| 20260505192234 | 52 | 330 | 2.6 | 8.7 | 0.00 | 0.00 | 0.00 | 62 | 1023.2 |
| 20260505191145 | 52 | 154 | 2.6 | 8.7 | 0.00 | 0.00 | 0.00 | 60 | 1022.9 |
| 20260505190201 | 52 | 155 | 3.5 | 12.2 | 0.00 | 0.00 | 0.00 | 60 | 1022.8 |
| 20260505185112 | 53 | 264 | 4.3 | 9.6 | 0.00 | 0.00 | 0.00 | 56 | 1023.3 |
| 20260505184127 | 54 | 237 | 4.3 | 12.2 | 0.00 | 0.00 | 0.00 | 48 | 1023.2 |
| 20260505183143 | 54 | 318 | 4.3 | 13.0 | 0.00 | 0.00 | 0.00 | 46 | 1022.9 |
| 20260505182157 | 54 | 31 | 0.9 | 4.3 | 0.00 | 0.00 | 0.00 | 46 | 1022.8 |
| 20260505181109 | 54 | 245 | 2.6 | 9.6 | 0.00 | 0.00 | 0.00 | 46 | 1023.2 |
| 20260505180124 | 54 | 333 | 2.6 | 11.3 | 0.00 | 0.00 | 0.00 | 46 | 1023.2 |
| 20260505175140 | 55 | 319 | 3.5 | 11.3 | 0.00 | 0.00 | 0.00 | 46 | 1023.3 |
| 20260505174156 | 56 | 230 | 2.6 | 7.0 | 0.00 | 0.00 | 0.00 | 45 | 1023.3 |
| 20260505173106 | 56 | 286 | 4.3 | 13.0 | 0.00 | 0.00 | 0.00 | 44 | 1023.2 |
| 20260505172122 | 57 | 20 | 2.6 | 8.7 | 0.00 | 0.00 | 0.00 | 44 | 1023.2 |
| 20260505171137 | 58 | 272 | 4.3 | 13.9 | 0.00 | 0.00 | 0.00 | 43 | 1023.0 |
| 20260505170153 | 57 | 308 | 5.2 | 12.2 | 0.00 | 0.00 | 0.00 | 43 | 1023.0 |
| 20260505165208 | 55 | 297 | 4.3 | 13.9 | 0.00 | 0.00 | 0.00 | 44 | 1022.9 |
| 20260505164120 | 55 | 230 | 3.5 | 6.1 | 0.00 | 0.00 | 0.00 | 43 | 1022.9 |
| 20260505163134 | 55 | 359 | 4.3 | 9.6 | 0.00 | 0.00 | 0.00 | 43 | 1022.8 |
| 20260505162150 | 54 | 288 | 5.2 | 9.6 | 0.00 | 0.00 | 0.00 | 43 | 1023.0 |
| 20260505161208 | 55 | 261 | 3.5 | 7.8 | 0.00 | 0.00 | 0.00 | 40 | 1023.3 |
| 20260505160116 | 55 | 308 | 3.5 | 7.8 | 0.00 | 0.00 | 0.00 | 38 | 1022.9 |
| 20260505153202 | 54 | 239 | 2.6 | 7.8 | 0.00 | 0.00 | 0.00 | 41 | 1022.9 |
| 20260505152112 | 54 | 122 | 1.7 | 6.1 | 0.00 | 0.00 | 0.00 | 42 | 1022.9 |
| 20260505151127 | 54 | 186 | 2.6 | 6.1 | 0.00 | 0.00 | 0.00 | 42 | 1022.9 |
| 20260505150142 | 54 | 243 | 1.7 | 7.0 | 0.00 | 0.00 | 0.00 | 44 | 1023.0 |
| 20260505140210 | 54 | 213 | 3.5 | 9.6 | 0.00 | 0.00 | 0.00 | 45 | 1023.5 |
| 20260505130132 | 55 | 348 | 1.7 | 9.6 | 0.00 | 0.00 | 0.00 | 43 | 1022.8 |
| 20260505124202 | 55 | 271 | 2.6 | 7.8 | 0.00 | 0.00 | 0.00 | 41 | 1022.8 |
| 20260505123218 | 54 | 322 | 2.6 | 7.0 | 0.00 | 0.00 | 0.00 | 41 | 1022.8 |
| 20260505122149 | 54 | 343 | 2.6 | 6.1 | 0.00 | 0.00 | 0.00 | 41 | 1022.5 |
| 20260505121145 | 54 | 297 | 2.6 | 6.1 | 0.00 | 0.00 | 0.00 | 41 | 1022.5 |
| 20260505120159 | 54 | 331 | 2.6 | 7.0 | 0.00 | 0.00 | 0.00 | 40 | 1022.4 |
| 20260505115214 | 55 | 272 | 2.6 | 5.2 | 0.00 | 0.00 | 0.00 | 39 | 1022.6 |
| 20260505114145 | 55 | 326 | 2.6 | 8.7 | 0.00 | 0.00 | 0.00 | 39 | 1022.3 |
| 20260505113200 | 55 | 290 | 2.6 | 6.1 | 0.00 | 0.00 | 0.00 | 39 | 1022.7 |
| 20260505112154 | 55 | 331 | 2.6 | 7.0 | 0.00 | 0.00 | 0.00 | 39 | 1022.6 |
| 20260505111229 | 55 | 241 | 3.5 | 11.3 | 0.00 | 0.00 | 0.00 | 39 | 1022.9 |
| 20260505110225 | 55 | 285 | 1.7 | 5.2 | 0.00 | 0.00 | 0.00 | 40 | 1022.6 |